Time,TemperatureF,DewpointF,PressureIn,WindDirection,WindDirectionDegrees,WindSpeedMPH,WindSpeedGustMPH,Humidity,HourlyPrecipIn,Conditions,Clouds,dailyrainin,SolarRadiationWatts/m^2,SoftwareType,DateUTC
2013-09-26 00:13:00,71.3,50.0,29.41,SE,132,10.0,17.0,48,0.00,,,0.00,0,weatherlink.com 1.10,2013-09-26 05:13:00,
2013-09-26 00:28:00,71.0,50.0,29.41,SSE,150,7.0,15.0,47,0.00,,,0.00,0,weatherlink.com 1.10,2013-09-26 05:28:00,
2013-09-26 00:43:00,71.1,49.0,29.41,South,183,7.0,18.0,46,0.00,,,0.00,0,weatherlink.com 1.10,2013-09-26 05:43:00,
2013-09-26 00:58:00,70.6,49.0,29.41,SSW,199,3.0,18.0,46,0.00,,,0.00,0,weatherlink.com 1.10,2013-09-26 05:58:00,
2013-09-26 01:14:00,70.2,48.0,29.41,SSE,151,1.0,13.0,46,0.00,,,0.00,0,weatherlink.com 1.10,2013-09-26 06:14:00,
2013-09-26 01:28:00,69.7,48.0,29.41,South,190,10.0,16.0,47,0.00,,,0.00,0,weatherlink.com 1.10,2013-09-26 06:28:00,
2013-09-26 01:43:00,69.4,48.0,29.40,SSE,166,5.0,19.0,47,0.00,,,0.00,0,weatherlink.com 1.10,2013-09-26 06:43:00,
2013-09-26 01:58:00,68.8,48.0,29.40,SSE,162,7.0,15.0,48,0.00,,,0.00,0,weatherlink.com 1.10,2013-09-26 06:58:00,
2013-09-26 02:13:00,68.5,48.0,29.41,South,184,7.0,15.0,49,0.00,,,0.00,0,weatherlink.com 1.10,2013-09-26 07:13:00,
2013-09-26 02:28:00,68.0,48.0,29.41,SE,127,1.0,15.0,49,0.00,,,0.00,0,weatherlink.com 1.10,2013-09-26 07:28:00,
2013-09-26 02:43:00,67.9,48.0,29.41,SSE,160,1.0,16.0,49,0.00,,,0.00,0,weatherlink.com 1.10,2013-09-26 07:43:00,
2013-09-26 02:58:00,67.5,48.0,29.41,South,175,2.0,15.0,50,0.00,,,0.00,0,weatherlink.com 1.10,2013-09-26 07:58:00,
2013-09-26 03:13:00,67.0,48.0,29.41,SSE,159,1.0,13.0,51,0.00,,,0.00,0,weatherlink.com 1.10,2013-09-26 08:13:00,
2013-09-26 03:28:00,66.5,48.0,29.41,SE,139,3.0,12.0,52,0.00,,,0.00,0,weatherlink.com 1.10,2013-09-26 08:28:00,
2013-09-26 03:43:00,65.8,49.0,29.41,SSE,161,3.0,10.0,54,0.00,,,0.00,0,weatherlink.com 1.10,2013-09-26 08:43:00,
2013-09-26 03:58:00,65.5,48.0,29.41,SSW,202,3.0,13.0,54,0.00,,,0.00,0,weatherlink.com 1.10,2013-09-26 08:58:00,
2013-09-26 04:13:00,64.9,49.0,29.41,SSW,196,6.0,13.0,56,0.00,,,0.00,0,weatherlink.com 1.10,2013-09-26 09:13:00,
2013-09-26 04:28:00,64.6,48.0,29.41,South,177,1.0,8.0,56,0.00,,,0.00,0,weatherlink.com 1.10,2013-09-26 09:28:00,
2013-09-26 04:43:00,64.1,49.0,29.42,South,169,0.0,9.0,58,0.00,,,0.00,0,weatherlink.com 1.10,2013-09-26 09:43:00,
2013-09-26 04:58:00,63.8,49.0,29.42,SSE,160,7.0,8.0,58,0.00,,,0.00,0,weatherlink.com 1.10,2013-09-26 09:58:00,
2013-09-26 05:14:00,63.1,49.0,29.44,SW,220,6.0,10.0,60,0.00,,,0.00,0,weatherlink.com 1.10,2013-09-26 10:14:00,
2013-09-26 05:28:00,61.6,48.0,29.44,SSW,211,3.0,9.0,62,0.00,,,0.00,0,weatherlink.com 1.10,2013-09-26 10:28:00,
2013-09-26 05:43:00,60.6,48.0,29.45,West,272,0.0,7.0,63,0.00,,,0.00,0,weatherlink.com 1.10,2013-09-26 10:43:00,
2013-09-26 05:58:00,58.8,47.0,29.45,SSW,213,0.0,4.0,66,0.00,,,0.00,0,weatherlink.com 1.10,2013-09-26 10:58:00,
2013-09-26 06:13:00,58.2,48.0,29.46,SW,219,0.0,0.0,68,0.00,,,0.00,0,weatherlink.com 1.10,2013-09-26 11:13:00,
2013-09-26 06:28:00,58.6,48.0,29.46,SSW,207,2.0,4.0,67,0.00,,,0.00,0,weatherlink.com 1.10,2013-09-26 11:28:00,
2013-09-26 06:43:00,58.8,47.0,29.46,SSE,159,5.0,6.0,66,0.00,,,0.00,0,weatherlink.com 1.10,2013-09-26 11:43:00,
2013-09-26 06:58:00,59.8,48.0,29.46,South,175,3.0,9.0,65,0.00,,,0.00,0,weatherlink.com 1.10,2013-09-26 11:58:00,
2013-09-26 07:13:00,58.7,48.0,29.47,South,177,0.0,9.0,67,0.00,,,0.00,0,weatherlink.com 1.10,2013-09-26 12:13:00,
2013-09-26 07:28:00,57.7,48.0,29.47,South,180,1.0,7.0,69,0.00,,,0.00,0,weatherlink.com 1.10,2013-09-26 12:28:00,
2013-09-26 07:44:00,56.5,47.0,29.48,South,169,0.0,6.0,71,0.00,,,0.00,9,weatherlink.com 1.10,2013-09-26 12:44:00,
2013-09-26 07:59:00,56.3,47.0,29.49,South,184,0.0,2.0,72,0.00,,,0.00,18,weatherlink.com 1.10,2013-09-26 12:59:00,
2013-09-26 08:14:00,56.0,47.0,29.49,SW,219,0.0,3.0,73,0.00,,,0.00,47,weatherlink.com 1.10,2013-09-26 13:14:00,
2013-09-26 08:29:00,56.1,48.0,29.49,WNW,283,0.0,1.0,73,0.00,,,0.00,95,weatherlink.com 1.10,2013-09-26 13:29:00,
2013-09-26 08:44:00,57.3,48.0,29.50,West,280,4.0,7.0,70,0.00,,,0.00,151,weatherlink.com 1.10,2013-09-26 13:44:00,
2013-09-26 08:59:00,58.2,48.0,29.50,WSW,252,1.0,7.0,70,0.00,,,0.00,207,weatherlink.com 1.10,2013-09-26 13:59:00,
2013-09-26 09:14:00,59.3,49.0,29.50,NW,305,3.0,6.0,69,0.00,,,0.00,253,weatherlink.com 1.10,2013-09-26 14:14:00,
2013-09-26 09:29:00,60.0,50.0,29.50,West,269,0.0,5.0,69,0.00,,,0.00,301,weatherlink.com 1.10,2013-09-26 14:29:00,
2013-09-26 09:44:00,61.1,50.0,29.51,WNW,284,1.0,6.0,68,0.00,,,0.00,346,weatherlink.com 1.10,2013-09-26 14:44:00,
2013-09-26 09:59:00,61.7,51.0,29.51,NW,317,5.0,8.0,67,0.00,,,0.00,394,weatherlink.com 1.10,2013-09-26 14:59:00,
2013-09-26 10:14:00,62.9,51.0,29.52,NW,309,0.0,8.0,65,0.00,,,0.00,438,weatherlink.com 1.10,2013-09-26 15:14:00,
2013-09-26 10:29:00,63.9,51.0,29.51,West,275,2.0,7.0,64,0.00,,,0.00,480,weatherlink.com 1.10,2013-09-26 15:29:00,
2013-09-26 10:44:00,64.6,52.0,29.52,WNW,301,0.0,7.0,63,0.00,,,0.00,519,weatherlink.com 1.10,2013-09-26 15:44:00,
2013-09-26 10:59:00,65.7,52.0,29.52,NW,315,1.0,6.0,62,0.00,,,0.00,552,weatherlink.com 1.10,2013-09-26 15:59:00,
2013-09-26 11:15:00,66.9,52.0,29.52,WNW,294,3.0,8.0,60,0.00,,,0.00,585,weatherlink.com 1.10,2013-09-26 16:15:00,
2013-09-26 11:30:00,68.3,53.0,29.52,WNW,287,8.0,9.0,58,0.00,,,0.00,615,weatherlink.com 1.10,2013-09-26 16:30:00,
2013-09-26 11:45:00,69.2,52.0,29.52,WNW,296,0.0,8.0,55,0.00,,,0.00,645,weatherlink.com 1.10,2013-09-26 16:45:00,
2013-09-26 12:00:00,70.3,53.0,29.52,WNW,299,0.0,12.0,55,0.00,,,0.00,670,weatherlink.com 1.10,2013-09-26 17:00:00,
2013-09-26 12:15:00,70.7,53.0,29.52,SW,224,3.0,9.0,54,0.00,,,0.00,691,weatherlink.com 1.10,2013-09-26 17:15:00,
2013-09-26 12:30:00,71.3,53.0,29.52,WNW,297,0.0,5.0,52,0.00,,,0.00,710,weatherlink.com 1.10,2013-09-26 17:30:00,
2013-09-26 12:45:00,73.4,54.0,29.52,West,281,0.0,6.0,51,0.00,,,0.00,724,weatherlink.com 1.10,2013-09-26 17:45:00,
2013-09-26 13:00:00,74.7,54.0,29.52,West,261,0.0,4.0,48,0.00,,,0.00,737,weatherlink.com 1.10,2013-09-26 18:00:00,
2013-09-26 13:15:00,74.0,52.0,29.52,West,278,0.0,9.0,47,0.00,,,0.00,745,weatherlink.com 1.10,2013-09-26 18:15:00,
2013-09-26 13:30:00,74.6,52.0,29.52,WSW,245,0.0,9.0,46,0.00,,,0.00,747,weatherlink.com 1.10,2013-09-26 18:30:00,
2013-09-26 13:45:00,75.3,53.0,29.51,SSW,196,0.0,4.0,46,0.00,,,0.00,747,weatherlink.com 1.10,2013-09-26 18:45:00,
2013-09-26 14:00:00,76.2,53.0,29.51,South,174,0.0,5.0,44,0.00,,,0.00,745,weatherlink.com 1.10,2013-09-26 19:00:00,
2013-09-26 14:15:00,77.5,53.0,29.50,SW,217,6.0,7.0,42,0.00,,,0.00,740,weatherlink.com 1.10,2013-09-26 19:15:00,
2013-09-26 14:30:00,77.9,54.0,29.50,SW,230,4.0,9.0,43,0.00,,,0.00,726,weatherlink.com 1.10,2013-09-26 19:30:00,
2013-09-26 14:45:00,78.0,54.0,29.50,South,183,2.0,7.0,43,0.00,,,0.00,714,weatherlink.com 1.10,2013-09-26 19:45:00,
2013-09-26 15:00:00,78.2,54.0,29.50,SW,214,3.0,10.0,43,0.00,,,0.00,675,weatherlink.com 1.10,2013-09-26 20:00:00,
2013-09-26 15:15:00,79.1,53.0,29.50,SSW,209,5.0,12.0,41,0.00,,,0.00,675,weatherlink.com 1.10,2013-09-26 20:15:00,
2013-09-26 15:30:00,79.7,54.0,29.49,SSW,200,2.0,12.0,41,0.00,,,0.00,649,weatherlink.com 1.10,2013-09-26 20:30:00,
2013-09-26 15:45:00,79.8,54.0,29.49,SE,140,2.0,10.0,41,0.00,,,0.00,621,weatherlink.com 1.10,2013-09-26 20:45:00,
2013-09-26 16:00:00,80.5,53.0,29.49,South,170,3.0,12.0,38,0.00,,,0.00,594,weatherlink.com 1.10,2013-09-26 21:00:00,
2013-09-26 16:15:00,81.5,53.0,29.48,SSW,213,7.0,11.0,38,0.00,,,0.00,557,weatherlink.com 1.10,2013-09-26 21:15:00,
2013-09-26 16:30:00,82.0,53.0,29.48,SSW,202,3.0,11.0,37,0.00,,,0.00,519,weatherlink.com 1.10,2013-09-26 21:30:00,
2013-09-26 16:45:00,83.4,53.0,29.48,South,184,9.0,13.0,35,0.00,,,0.00,478,weatherlink.com 1.10,2013-09-26 21:45:00,
2013-09-26 17:00:00,83.9,53.0,29.48,South,188,3.0,11.0,34,0.00,,,0.00,436,weatherlink.com 1.10,2013-09-26 22:00:00,
2013-09-26 17:15:00,84.2,53.0,29.47,South,181,3.0,10.0,34,0.00,,,0.00,390,weatherlink.com 1.10,2013-09-26 22:15:00,
2013-09-26 17:30:00,85.0,52.0,29.47,SSE,162,4.0,11.0,32,0.00,,,0.00,348,weatherlink.com 1.10,2013-09-26 22:30:00,
2013-09-26 17:45:00,85.0,50.0,29.47,SSE,165,4.0,9.0,30,0.00,,,0.00,297,weatherlink.com 1.10,2013-09-26 22:45:00,
2013-09-26 18:00:00,85.4,50.0,29.46,South,173,3.0,8.0,29,0.00,,,0.00,250,weatherlink.com 1.10,2013-09-26 23:00:00,
2013-09-26 18:15:00,85.2,50.0,29.46,South,185,1.0,7.0,29,0.00,,,0.00,188,weatherlink.com 1.10,2013-09-26 23:15:00,
2013-09-26 18:30:00,85.0,48.0,29.46,South,188,0.0,4.0,28,0.00,,,0.00,135,weatherlink.com 1.10,2013-09-26 23:30:00,
2013-09-26 18:45:00,84.4,50.0,29.46,South,177,0.0,0.0,30,0.00,,,0.00,83,weatherlink.com 1.10,2013-09-26 23:45:00,
2013-09-26 19:00:00,83.5,50.0,29.46,South,177,0.0,0.0,31,0.00,,,0.00,42,weatherlink.com 1.10,2013-09-27 00:00:00,
2013-09-26 19:15:00,82.9,48.0,29.46,South,177,0.0,0.0,29,0.00,,,0.00,18,weatherlink.com 1.10,2013-09-27 00:15:00,
2013-09-26 19:30:00,80.5,49.0,29.46,South,177,0.0,0.0,33,0.00,,,0.00,7,weatherlink.com 1.10,2013-09-27 00:30:00,
2013-09-26 19:45:00,78.8,50.0,29.46,South,177,0.0,0.0,36,0.00,,,0.00,0,weatherlink.com 1.10,2013-09-27 00:45:00,
2013-09-26 20:00:00,78.2,49.0,29.46,South,177,0.0,0.0,36,0.00,,,0.00,0,weatherlink.com 1.10,2013-09-27 01:00:00,
2013-09-26 20:16:00,77.6,48.0,29.46,South,177,0.0,0.0,35,0.00,,,0.00,0,weatherlink.com 1.10,2013-09-27 01:16:00,
2013-09-26 20:31:00,77.4,48.0,29.46,SSE,165,0.0,0.0,35,0.00,,,0.00,0,weatherlink.com 1.10,2013-09-27 01:31:00,
2013-09-26 20:46:00,77.6,48.0,29.46,East,92,2.0,6.0,35,0.00,,,0.00,0,weatherlink.com 1.10,2013-09-27 01:46:00,
2013-09-26 21:01:00,76.3,48.0,29.46,East,95,0.0,5.0,37,0.00,,,0.00,0,weatherlink.com 1.10,2013-09-27 02:01:00,
2013-09-26 21:16:00,75.2,48.0,29.47,East,96,0.0,0.0,38,0.00,,,0.00,0,weatherlink.com 1.10,2013-09-27 02:16:00,
2013-09-26 21:31:00,73.3,48.0,29.48,East,96,0.0,0.0,41,0.00,,,0.00,0,weatherlink.com 1.10,2013-09-27 02:31:00,
2013-09-26 21:46:00,70.2,48.0,29.48,East,96,0.0,0.0,45,0.00,,,0.00,0,weatherlink.com 1.10,2013-09-27 02:46:00,
2013-09-26 22:01:00,70.7,48.0,29.48,East,96,0.0,0.0,45,0.00,,,0.00,0,weatherlink.com 1.10,2013-09-27 03:01:00,
2013-09-26 22:16:00,70.3,48.0,29.49,East,96,0.0,1.0,46,0.00,,,0.00,0,weatherlink.com 1.10,2013-09-27 03:16:00,
2013-09-26 22:31:00,67.9,49.0,29.49,East,94,0.0,4.0,52,0.00,,,0.00,0,weatherlink.com 1.10,2013-09-27 03:31:00,
2013-09-26 22:46:00,69.5,49.0,29.49,South,189,5.0,8.0,48,0.00,,,0.00,0,weatherlink.com 1.10,2013-09-27 03:46:00,
2013-09-26 23:01:00,71.3,49.0,29.49,SSW,194,4.0,10.0,46,0.00,,,0.00,0,weatherlink.com 1.10,2013-09-27 04:01:00,
2013-09-26 23:16:00,69.5,49.0,29.49,South,187,0.0,5.0,49,0.00,,,0.00,0,weatherlink.com 1.10,2013-09-27 04:16:00,
2013-09-26 23:31:00,70.4,51.0,29.48,SSE,165,0.0,5.0,50,0.00,,,0.00,0,weatherlink.com 1.10,2013-09-27 04:31:00,
2013-09-26 23:46:00,69.9,53.0,29.49,SSE,153,5.0,8.0,55,0.00,,,0.00,0,weatherlink.com 1.10,2013-09-27 04:46:00,